QPF
0.00 0.00 0.00 0.00 0.00 0.00 0.00 0.00 0.00 0.00 0.00 0.00 0.00 0.00 0.00 0.01 0.01 0.01 0.02 0.04 0.05 0.05 0.06 0.06 0.06 0.05 0.07 0.10 0.07 0.06 0.06 0.05 0.06 0.06 0.06 0.07 0.06 0.06 0.06 0.07 0.08 0.12 0.14
0.00 0.00 0.00 0.00 0.00 0.00 0.00 0.00 0.00 0.00 0.00 0.00 0.00 0.00 0.00 0.00 0.00 0.00 0.00 0.02 0.03 0.04 0.05 0.07 0.07 0.06 0.06 0.10 0.11 0.08 0.06 0.06 0.06 0.05 0.05 0.07 0.07 0.06 0.06 0.07 0.08 0.11 0.12
0.00 0.00 0.00 0.00 0.00 0.00 0.00 0.00 0.00 0.00 0.00 0.00 0.00 0.00 0.00 0.00 0.00 0.00 0.00 0.01 0.01 0.02 0.04 0.07 0.09 0.09 0.09 0.10 0.15 0.11 0.07 0.06 0.07 0.07 0.07 0.08 0.08 0.06 0.07 0.08 0.06 0.06 0.08
0.00 0.00 0.00 0.00 0.00 0.00 0.00 0.00 0.00 0.00 0.00 0.00 0.00 0.00 0.00 0.00 0.01 0.01 0.00 0.00 0.01 0.01 0.03 0.06 0.08 0.09 0.08 0.10 0.16 0.19 0.14 0.11 0.09 0.09 0.09 0.08 0.07 0.06 0.07 0.07 0.06 0.05 0.06
0.00 0.00 0.00 0.00 0.00 0.00 0.00 0.00 0.00 0.00 0.00 0.00 0.00 0.00 0.00 0.01 0.01 0.01 0.01 0.01 0.01 0.01 0.01 0.03 0.05 0.04 0.06 0.09 0.16 0.24 0.22 0.19 0.15 0.12 0.09 0.08 0.06 0.06 0.07 0.06 0.05 0.04 0.05
0.00 0.00 0.00 0.00 0.00 0.00 0.00 0.00 0.00 0.00 0.00 0.00 0.00 0.00 0.00 0.01 0.02 0.02 0.02 0.01 0.01 0.01 0.02 0.02 0.02 0.02 0.03 0.08 0.14 0.22 0.25 0.20 0.18 0.14 0.11 0.07 0.06 0.05 0.05 0.05 0.05 0.04 0.05
0.00 0.00 0.00 0.00 0.00 0.00 0.00 0.00 0.00 0.00 0.00 0.00 0.00 0.01 0.01 0.01 0.01 0.02 0.02 0.01 0.01 0.02 0.02 0.03 0.02 0.01 0.01 0.06 0.09 0.14 0.20 0.18 0.15 0.14 0.11 0.08 0.07 0.05 0.05 0.05 0.05 0.05 0.05
0.00 0.00 0.00 0.00 0.00 0.00 0.00 0.00 0.00 0.00 0.00 0.00 0.00 0.00 0.01 0.01 0.01 0.01 0.02 0.02 0.02 0.02 0.02 0.02 0.02 0.02 0.02 0.03 0.06 0.09 0.13 0.15 0.14 0.12 0.10 0.08 0.07 0.07 0.06 0.05 0.04 0.04 0.05
0.00 0.00 0.00 0.00 0.00 0.00 0.00 0.00 0.00 0.00 0.00 0.00 0.00 0.00 0.00 0.00 0.00 0.00 0.01 0.01 0.02 0.02 0.02 0.02 0.02 0.02 0.03 0.02 0.04 0.06 0.07 0.09 0.10 0.10 0.08 0.08 0.07 0.06 0.05 0.05 0.04 0.03 0.03
0.00 0.00 0.00 0.00 0.00 0.00 0.00 0.00 0.00 0.00 0.00 0.00 0.01 0.01 0.01 0.02 0.01 0.01 0.01 0.02 0.02 0.01 0.02 0.02 0.02 0.02 0.02 0.02 0.03 0.03 0.04 0.05 0.07 0.07 0.06 0.06 0.05 0.05 0.04 0.04 0.05 0.04 0.03
0.00 0.00 0.00 0.00 0.00 0.00 0.00 0.00 0.00 0.00 0.00 0.00 0.00 0.01 0.01 0.01 0.02 0.01 0.01 0.02 0.02 0.01 0.01 0.02 0.02 0.02 0.01 0.02 0.03 0.04 0.04 0.05 0.05 0.06 0.07 0.08 0.07 0.05 0.05 0.04 0.05 0.05 0.03
0.00 0.00 0.00 0.00 0.00 0.00 0.00 0.00 0.00 0.00 0.00 0.00 0.00 0.00 0.00 0.01 0.02 0.03 0.02 0.02 0.01 0.01 0.01 0.02 0.02 0.02 0.01 0.01 0.03 0.04 0.05 0.06 0.06 0.05 0.06 0.07 0.08 0.08 0.06 0.05 0.05 0.04 0.03
0.00 0.00 0.00 0.00 0.00 0.00 0.00 0.00 0.00 0.00 0.00 0.00 0.00 0.01 0.01 0.01 0.03 0.04 0.03 0.02 0.02 0.02 0.01 0.01 0.02 0.02 0.02 0.01 0.01 0.04 0.04 0.06 0.08 0.08 0.06 0.03 0.04 0.07 0.08 0.06 0.06 0.06 0.04
0.00 0.00 0.00 0.00 0.00 0.00 0.00 0.00 0.00 0.00 0.00 0.00 0.01 0.01 0.01 0.01 0.01 0.01 0.02 0.01 0.01 0.01 0.01 0.01 0.01 0.03 0.04 0.03 0.02 0.02 0.02 0.03 0.05 0.05 0.07 0.05 0.03 0.04 0.06 0.06 0.04 0.04 0.04
0.00 0.00 0.00 0.00 0.00 0.00 0.00 0.00 0.00 0.00 0.00 0.00 0.00 0.01 0.01 0.01 0.01 0.01 0.01 0.00 0.00 0.00 0.00 0.00 0.00 0.01 0.02 0.04 0.02 0.01 0.01 0.01 0.03 0.02 0.05 0.10 0.06 0.04 0.04 0.05 0.05 0.04 0.03
0.00 0.00 0.00 0.00 0.00 0.00 0.00 0.00 0.00 0.00 0.00 0.00 0.00 0.00 0.00 0.00 0.00 0.00 0.00 0.01 0.01 0.00 0.00 0.00 0.00 0.00 0.01 0.02 0.02 0.01 0.01 0.02 0.02 0.02 0.04 0.11 0.13 0.08 0.05 0.04 0.05 0.05 0.04
0.00 0.00 0.00 0.00 0.00 0.00 0.00 0.00 0.00 0.00 0.00 0.00 0.00 0.00 0.00 0.00 0.00 0.00 0.00 0.00 0.01 0.00 0.00 0.00 0.00 0.00 0.01 0.00 0.01 0.01 0.01 0.01 0.02 0.03 0.05 0.06 0.06 0.08 0.09 0.05 0.05 0.07 0.05
0.00 0.00 0.00 0.00 0.00 0.00 0.00 0.00 0.00 0.00 0.00 0.00 0.00 0.00 0.00 0.00 0.00 0.00 0.00 0.00 0.00 0.00 0.00 0.00 0.00 0.00 0.00 0.00 0.00 0.00 0.01 0.01 0.01 0.02 0.04 0.06 0.04 0.03 0.04 0.04 0.07 0.11 0.09
0.00 0.00 0.00 0.00 0.00 0.00 0.00 0.00 0.00 0.00 0.00 0.00 0.00 0.00 0.00 0.00 0.00 0.00 0.00 0.00 0.00 0.00 0.00 0.00 0.00 0.00 0.00 0.00 0.00 0.00 0.00 0.00 0.00 0.02 0.03 0.04 0.06 0.05 0.03 0.03 0.06 0.13 0.16
0.00 0.00 0.00 0.00 0.00 0.00 0.00 0.00 0.00 0.00 0.00 0.00 0.00 0.00 0.00 0.00 0.00 0.00 0.00 0.00 0.00 0.00 0.00 0.00 0.00 0.00 0.00 0.00 0.00 0.00 0.00 0.01 0.01 0.01 0.02 0.03 0.03 0.05 0.05 0.04 0.05 0.11 0.19
0.00 0.01 0.01 0.00 0.00 0.00 0.00 0.00 0.00 0.00 0.00 0.00 0.00 0.00 0.00 0.00 0.00 0.00 0.00 0.00 0.00 0.00 0.00 0.00 0.00 0.00 0.00 0.00 0.00 0.00 0.00 0.01 0.01 0.00 0.00 0.00 0.01 0.02 0.03 0.05 0.06 0.09 0.13
0.00 0.01 0.01 0.00 0.00 0.00 0.00 0.00 0.00 0.00 0.00 0.00 0.00 0.00 0.00 0.00 0.00 0.01 0.01 0.01 0.01 0.00 0.00 0.00 0.00 0.00 0.00 0.00 0.00 0.00 0.00 0.00 0.00 0.00 0.00 0.00 0.00 0.01 0.01 0.03 0.05 0.07 0.09
0.00 0.01 0.01 0.00 0.00 0.00 0.00 0.00 0.00 0.00 0.00 0.00 0.00 0.00 0.00 0.00 0.00 0.00 0.00 0.01 0.01 0.01 0.01 0.01 0.00 0.00 0.00 0.00 0.00 0.00 0.00 0.00 0.00 0.00 0.00 0.00 0.00 0.00 0.00 0.00 0.02 0.04 0.06
0.00 0.01 0.00 0.00 0.00 0.00 0.00 0.00 0.00 0.00 0.00 0.00 0.00 0.00 0.00 0.00 0.00 0.00 0.00 0.00 0.00 0.00 0.00 0.01 0.01 0.01 0.01 0.00 0.00 0.00 0.00 0.00 0.00 0.00 0.00 0.00 0.00 0.00 0.00 0.00 0.00 0.01 0.02
0.01 0.01 0.00 0.00 0.00 0.00 0.00 0.00 0.00 0.00 0.00 0.00 0.00 0.00 0.00 0.00 0.00 0.00 0.00 0.00 0.00 0.00 0.00 0.00 0.00 0.01 0.01 0.01 0.01 0.00 0.00 0.00 0.00 0.00 0.00 0.00 0.00 0.00 0.00 0.00 0.00 0.00 0.01
0.01 0.00 0.00 0.00 0.00 0.00 0.00 0.00 0.00 0.00 0.00 0.00 0.00 0.00 0.00 0.00 0.00 0.00 0.00 0.00 0.00 0.00 0.00 0.00 0.00 0.00 0.00 0.01 0.01 0.01 0.01 0.01 0.01 0.00 0.01 0.01 0.00 0.00 0.00 0.00 0.00 0.00 0.00
MSLP
1017.72 1017.59 1017.38 1017.09 1016.75 1016.40 1016.08 1015.80 1015.59 1015.44 1015.34 1015.27 1015.20 1015.13 1015.05 1014.97 1014.90 1014.85 1014.86 1014.92 1015.03 1015.20 1015.41 1015.64 1015.88 1016.10 1016.32 1016.52 1016.70 1016.87 1017.03 1017.18 1017.32 1017.46 1017.58 1017.69 1017.79 1017.88 1017.97 1018.06 1018.16 1018.27 1018.40
1017.92 1017.73 1017.47 1017.15 1016.80 1016.45 1016.14 1015.89 1015.70 1015.56 1015.47 1015.38 1015.30 1015.19 1015.06 1014.93 1014.82 1014.74 1014.73 1014.79 1014.93 1015.13 1015.37 1015.62 1015.87 1016.10 1016.29 1016.45 1016.58 1016.69 1016.79 1016.90 1017.01 1017.12 1017.24 1017.36 1017.48 1017.59 1017.69 1017.79 1017.90 1018.01 1018.14
1018.12 1017.87 1017.57 1017.24 1016.89 1016.57 1016.29 1016.06 1015.90 1015.78 1015.69 1015.60 1015.48 1015.34 1015.17 1015.00 1014.86 1014.76 1014.73 1014.79 1014.93 1015.14 1015.38 1015.63 1015.87 1016.06 1016.20 1016.30 1016.37 1016.41 1016.46 1016.52 1016.60 1016.71 1016.83 1016.97 1017.11 1017.25 1017.37 1017.49 1017.61 1017.72 1017.84
1018.34 1018.05 1017.73 1017.39 1017.06 1016.76 1016.51 1016.32 1016.18 1016.07 1015.97 1015.86 1015.72 1015.54 1015.35 1015.16 1014.99 1014.89 1014.86 1014.91 1015.05 1015.24 1015.45 1015.67 1015.85 1015.98 1016.06 1016.09 1016.10 1016.09 1016.10 1016.13 1016.20 1016.31 1016.45 1016.61 1016.78 1016.94 1017.09 1017.23 1017.35 1017.47 1017.58
1018.59 1018.28 1017.94 1017.61 1017.30 1017.03 1016.81 1016.64 1016.50 1016.38 1016.26 1016.12 1015.96 1015.76 1015.56 1015.37 1015.21 1015.11 1015.09 1015.14 1015.26 1015.41 1015.58 1015.73 1015.84 1015.90 1015.90 1015.88 1015.83 1015.80 1015.80 1015.83 1015.92 1016.04 1016.20 1016.38 1016.56 1016.73 1016.89 1017.03 1017.16 1017.27 1017.38
1018.87 1018.54 1018.22 1017.90 1017.62 1017.37 1017.16 1016.98 1016.83 1016.69 1016.53 1016.36 1016.17 1015.97 1015.77 1015.60 1015.48 1015.41 1015.41 1015.46 1015.55 1015.66 1015.76 1015.83 1015.85 1015.84 1015.78 1015.72 1015.66 1015.63 1015.65 1015.71 1015.82 1015.96 1016.13 1016.29 1016.46 1016.61 1016.75 1016.87 1016.99 1017.10 1017.21
1019.17 1018.85 1018.54 1018.25 1017.99 1017.75 1017.54 1017.35 1017.16 1016.97 1016.77 1016.56 1016.35 1016.16 1015.99 1015.86 1015.78 1015.76 1015.79 1015.84 1015.91 1015.97 1015.99 1015.98 1015.92 1015.84 1015.75 1015.67 1015.63 1015.63 1015.69 1015.79 1015.92 1016.06 1016.19 1016.30 1016.40 1016.48 1016.56 1016.63 1016.73 1016.83 1016.95
1019.49 1019.19 1018.90 1018.64 1018.39 1018.17 1017.94 1017.72 1017.49 1017.25 1017.00 1016.75 1016.53 1016.34 1016.21 1016.14 1016.12 1016.15 1016.21 1016.27 1016.31 1016.31 1016.26 1016.17 1016.04 1015.91 1015.80 1015.74 1015.73 1015.78 1015.89 1016.01 1016.13 1016.22 1016.27 1016.27 1016.23 1016.18 1016.14 1016.14 1016.19 1016.30 1016.45
1019.80 1019.53 1019.27 1019.04 1018.82 1018.60 1018.37 1018.11 1017.84 1017.54 1017.24 1016.97 1016.73 1016.57 1016.47 1016.45 1016.50 1016.58 1016.66 1016.72 1016.73 1016.67 1016.55 1016.39 1016.21 1016.05 1015.94 1015.90 1015.94 1016.03 1016.15 1016.26 1016.32 1016.29 1016.18 1015.98 1015.74 1015.48 1015.28 1015.16 1015.17 1015.29 1015.52
1020.11 1019.87 1019.65 1019.46 1019.26 1019.06 1018.82 1018.54 1018.22 1017.89 1017.55 1017.25 1017.01 1016.85 1016.79 1016.82 1016.90 1017.01 1017.11 1017.16 1017.13 1017.02 1016.84 1016.62 1016.40 1016.22 1016.11 1016.10 1016.16 1016.26 1016.36 1016.40 1016.32 1016.10 1015.74 1015.27 1014.74 1014.24 1013.82 1013.58 1013.53 1013.70 1014.04
1020.42 1020.21 1020.03 1019.88 1019.72 1019.54 1019.30 1019.02 1018.68 1018.31 1017.95 1017.62 1017.38 1017.23 1017.18 1017.22 1017.33 1017.45 1017.54 1017.56 1017.49 1017.33 1017.10 1016.83 1016.58 1016.39 1016.28 1016.27 1016.32 1016.39 1016.41 1016.31 1016.03 1015.55 1014.88 1014.07 1013.22 1012.42 1011.78 1011.39 1011.31 1011.54 1012.03
1020.71 1020.55 1020.42 1020.30 1020.19 1020.04 1019.83 1019.55 1019.21 1018.83 1018.45 1018.11 1017.85 1017.69 1017.64 1017.68 1017.78 1017.89 1017.95 1017.94 1017.82 1017.61 1017.34 1017.03 1016.76 1016.55 1016.43 1016.39 1016.40 1016.38 1016.27 1015.97 1015.43 1014.64 1013.62 1012.46 1011.26 1010.17 1009.31 1008.79 1008.69 1009.00 1009.67
1021.02 1020.89 1020.81 1020.74 1020.67 1020.56 1020.39 1020.14 1019.81 1019.44 1019.06 1018.70 1018.43 1018.25 1018.18 1018.19 1018.25 1018.32 1018.34 1018.29 1018.13 1017.89 1017.58 1017.25 1016.95 1016.72 1016.57 1016.49 1016.41 1016.27 1015.97 1015.44 1014.62 1013.51 1012.15 1010.65 1009.14 1007.79 1006.74 1006.13 1006.02 1006.42 1007.26
1021.34 1021.26 1021.21 1021.19 1021.17 1021.11 1020.98 1020.77 1020.47 1020.12 1019.74 1019.39 1019.09 1018.89 1018.77 1018.74 1018.76 1018.78 1018.76 1018.66 1018.47 1018.20 1017.87 1017.53 1017.21 1016.96 1016.77 1016.61 1016.42 1016.13 1015.64 1014.88 1013.79 1012.40 1010.75 1008.98 1007.23 1005.68 1004.50 1003.83 1003.73 1004.21 1005.19
1021.70 1021.65 1021.64 1021.67 1021.69 1021.68 1021.60 1021.43 1021.18 1020.85 1020.49 1020.14 1019.83 1019.59 1019.44 1019.36 1019.32 1019.29 1019.23 1019.10 1018.89 1018.61 1018.28 1017.93 1017.61 1017.32 1017.07 1016.83 1016.53 1016.09 1015.43 1014.47 1013.18 1011.58 1009.74 1007.80 1005.92 1004.27 1003.02 1002.33 1002.25 1002.78 1003.84
1022.11 1022.08 1022.11 1022.17 1022.23 1022.26 1022.23 1022.11 1021.90 1021.62 1021.28 1020.94 1020.62 1020.36 1020.17 1020.05 1019.96 1019.90 1019.80 1019.66 1019.44 1019.17 1018.85 1018.51 1018.18 1017.86 1017.56 1017.24 1016.83 1016.27 1015.48 1014.39 1012.98 1011.29 1009.38 1007.40 1005.49 1003.84 1002.61 1001.93 1001.87 1002.41 1003.47
1022.58 1022.57 1022.61 1022.69 1022.79 1022.86 1022.87 1022.80 1022.64 1022.40 1022.10 1021.77 1021.46 1021.19 1020.97 1020.82 1020.70 1020.61 1020.50 1020.35 1020.15 1019.89 1019.59 1019.26 1018.93 1018.59 1018.24 1017.86 1017.37 1016.73 1015.87 1014.74 1013.32 1011.65 1009.81 1007.91 1006.11 1004.56 1003.41 1002.77 1002.71 1003.20 1004.17
1023.10 1023.10 1023.16 1023.25 1023.37 1023.46 1023.51 1023.49 1023.37 1023.18 1022.92 1022.62 1022.33 1022.05 1021.83 1021.65 1021.52 1021.41 1021.30 1021.16 1020.97 1020.74 1020.46 1020.15 1019.81 1019.46 1019.08 1018.64 1018.11 1017.44 1016.58 1015.48 1014.15 1012.62 1010.95 1009.25 1007.64 1006.26 1005.24 1004.66 1004.57 1004.96 1005.77
1023.66 1023.67 1023.73 1023.83 1023.96 1024.07 1024.15 1024.16 1024.09 1023.94 1023.73 1023.47 1023.19 1022.93 1022.71 1022.53 1022.38 1022.27 1022.16 1022.03 1021.86 1021.65 1021.39 1021.09 1020.75 1020.38 1019.97 1019.51 1018.97 1018.31 1017.50 1016.51 1015.34 1014.02 1012.60 1011.17 1009.82 1008.66 1007.78 1007.26 1007.13 1007.38 1007.95
1024.24 1024.26 1024.32 1024.42 1024.55 1024.67 1024.77 1024.81 1024.78 1024.67 1024.49 1024.27 1024.02 1023.78 1023.56 1023.38 1023.23 1023.11 1023.00 1022.87 1022.72 1022.52 1022.27 1021.97 1021.63 1021.25 1020.83 1020.36 1019.82 1019.21 1018.49 1017.64 1016.68 1015.61 1014.48 1013.34 1012.27 1011.34 1010.61 1010.14 1009.95 1010.03 1010.34
1024.82 1024.84 1024.90 1024.99 1025.11 1025.24 1025.34 1025.40 1025.39 1025.32 1025.18 1024.99 1024.77 1024.55 1024.34 1024.16 1024.00 1023.87 1023.75 1023.62 1023.46 1023.26 1023.01 1022.71 1022.36 1021.97 1021.54 1021.08 1020.57 1020.02 1019.40 1018.71 1017.96 1017.14 1016.29 1015.44 1014.63 1013.90 1013.31 1012.88 1012.63 1012.54 1012.61
1025.34 1025.37 1025.42 1025.51 1025.62 1025.74 1025.84 1025.91 1025.92 1025.87 1025.75 1025.59 1025.40 1025.19 1024.99 1024.80 1024.63 1024.49 1024.34 1024.20 1024.02 1023.81 1023.56 1023.25 1022.89 1022.50 1022.07 1021.62 1021.15 1020.66 1020.15 1019.61 1019.03 1018.44 1017.83 1017.22 1016.62 1016.07 1015.59 1015.18 1014.87 1014.64 1014.50
1025.78 1025.82 1025.87 1025.95 1026.05 1026.15 1026.25 1026.31 1026.33 1026.29 1026.19 1026.05 1025.87 1025.67 1025.47 1025.28 1025.10 1024.93 1024.76 1024.59 1024.39 1024.17 1023.90 1023.58 1023.23 1022.84 1022.42 1021.99 1021.56 1021.13 1020.70 1020.27 1019.84 1019.41 1018.98 1018.55 1018.11 1017.69 1017.28 1016.90 1016.54 1016.22 1015.92
1026.11 1026.16 1026.22 1026.29 1026.37 1026.46 1026.53 1026.58 1026.60 1026.56 1026.48 1026.35 1026.19 1026.00 1025.80 1025.60 1025.40 1025.21 1025.01 1024.82 1024.60 1024.36 1024.08 1023.76 1023.42 1023.04 1022.64 1022.24 1021.84 1021.45 1021.08 1020.73 1020.40 1020.08 1019.76 1019.43 1019.10 1018.76 1018.40 1018.04 1017.66 1017.29 1016.91
1026.32 1026.38 1026.44 1026.51 1026.58 1026.64 1026.70 1026.73 1026.74 1026.70 1026.63 1026.52 1026.37 1026.19 1026.00 1025.79 1025.58 1025.37 1025.16 1024.94 1024.70 1024.45 1024.17 1023.86 1023.53 1023.17 1022.80 1022.43 1022.06 1021.71 1021.38 1021.07 1020.78 1020.51 1020.25 1019.98 1019.70 1019.40 1019.08 1018.74 1018.37 1017.99 1017.60
1026.40 1026.49 1026.56 1026.62 1026.67 1026.71 1026.75 1026.77 1026.77 1026.74 1026.68 1026.58 1026.46 1026.30 1026.13 1025.93 1025.72 1025.50 1025.27 1025.03 1024.79 1024.52 1024.25 1023.95 1023.63 1023.30 1022.96 1022.62 1022.28 1021.95 1021.64 1021.35 1021.07 1020.82 1020.56 1020.31 1020.05 1019.77 1019.48 1019.16 1018.82 1018.47 1018.12
Thickness
5727 5726 5725 5725 5724 5724 5723 5722 5722 5721 5721 5721 5720 5720 5720 5720 5721 5721 5722 5723 5724 5726 5727 5728 5730 5732 5734 5735 5737 5739 5740 5741 5743 5744 5746 5747 5748 5748 5749 5750 5751 5752 5754
5725 5724 5723 5722 5722 5721 5720 5720 5719 5718 5717 5717 5717 5716 5716 5716 5717 5717 5718 5719 5721 5722 5723 5725 5726 5728 5730 5732 5733 5735 5737 5739 5741 5742 5743 5744 5745 5746 5746 5747 5748 5750 5751
5723 5722 5721 5720 5719 5719 5718 5717 5716 5716 5715 5714 5713 5712 5712 5712 5713 5713 5714 5715 5716 5717 5719 5721 5722 5724 5726 5728 5730 5733 5735 5737 5738 5739 5740 5741 5742 5743 5744 5744 5745 5747 5748
5722 5721 5720 5718 5717 5717 5716 5715 5713 5711 5710 5709 5708 5708 5708 5708 5709 5709 5710 5711 5712 5713 5715 5716 5718 5720 5722 5724 5727 5729 5732 5734 5735 5736 5737 5737 5739 5739 5740 5741 5742 5743 5745
5719 5719 5718 5716 5716 5715 5714 5713 5710 5708 5706 5705 5705 5704 5704 5704 5704 5705 5706 5707 5708 5709 5710 5712 5714 5716 5717 5719 5722 5725 5729 5729 5731 5731 5732 5733 5734 5735 5737 5738 5739 5740 5742
5717 5717 5715 5714 5714 5712 5711 5709 5707 5705 5703 5702 5702 5700 5699 5699 5700 5701 5701 5703 5704 5705 5706 5707 5709 5711 5713 5715 5718 5720 5723 5724 5725 5726 5727 5729 5730 5731 5732 5734 5735 5737 5738
5714 5714 5713 5712 5711 5709 5707 5706 5705 5703 5700 5699 5697 5694 5694 5696 5696 5696 5697 5699 5700 5701 5702 5703 5705 5706 5708 5711 5712 5714 5716 5718 5720 5721 5722 5724 5725 5726 5728 5729 5731 5733 5734
5712 5711 5710 5709 5708 5707 5705 5704 5703 5699 5697 5696 5693 5689 5685 5687 5690 5692 5693 5694 5695 5697 5698 5699 5701 5702 5703 5705 5707 5709 5710 5712 5714 5715 5717 5719 5720 5722 5723 5724 5727 5728 5730
5708 5708 5707 5706 5705 5704 5702 5701 5700 5698 5694 5693 5692 5688 5682 5679 5681 5686 5688 5689 5691 5692 5694 5695 5696 5697 5698 5700 5702 5704 5706 5707 5709 5711 5712 5714 5715 5717 5718 5720 5722 5723 5725
5705 5705 5704 5704 5703 5702 5700 5699 5697 5696 5694 5690 5689 5688 5685 5683 5679 5678 5682 5685 5687 5688 5689 5690 5691 5692 5694 5696 5697 5699 5701 5702 5704 5706 5707 5709 5711 5712 5714 5715 5717 5718 5720
5701 5701 5701 5701 5700 5699 5697 5696 5695 5694 5692 5689 5686 5685 5684 5681 5680 5677 5675 5678 5682 5684 5685 5686 5687 5688 5689 5691 5693 5694 5696 5698 5699 5700 5702 5704 5706 5707 5709 5711 5712 5714 5716
5697 5698 5698 5697 5697 5696 5694 5693 5692 5690 5689 5687 5685 5683 5681 5679 5677 5675 5673 5673 5674 5678 5680 5682 5683 5684 5685 5687 5688 5690 5691 5693 5694 5695 5697 5699 5700 5702 5705 5706 5708 5710 5711
5692 5693 5694 5694 5693 5692 5691 5690 5689 5687 5686 5684 5682 5680 5679 5677 5676 5674 5672 5670 5670 5672 5675 5677 5678 5679 5681 5682 5684 5685 5687 5688 5689 5690 5692 5694 5695 5697 5700 5702 5703 5705 5706
5690 5690 5690 5690 5690 5689 5688 5687 5685 5684 5683 5681 5680 5678 5677 5675 5674 5673 5671 5668 5665 5665 5668 5670 5673 5674 5675 5677 5679 5680 5681 5682 5683 5685 5686 5688 5690 5693 5695 5697 5699 5700 5701
5688 5688 5687 5687 5686 5686 5685 5683 5681 5680 5679 5678 5676 5675 5674 5672 5671 5670 5669 5667 5663 5659 5659 5662 5665 5668 5669 5671 5673 5674 5675 5676 5678 5679 5681 5683 5685 5687 5690 5692 5694 5694 5695
5685 5685 5684 5683 5683 5682 5681 5679 5678 5677 5676 5674 5673 5672 5670 5669 5667 5667 5665 5663 5661 5658 5655 5656 5658 5660 5663 5665 5666 5668 5669 5670 5672 5673 5675 5676 5678 5681 5684 5686 5687 5687 5688
5682 5681 5681 5680 5679 5678 5677 5675 5674 5673 5671 5670 5669 5667 5666 5665 5663 5662 5660 5659 5657 5654 5651 5651 5653 5655 5656 5657 5659 5661 5662 5664 5665 5666 5668 5669 5671 5672 5674 5675 5677 5679 5680
5678 5678 5677 5676 5675 5674 5672 5671 5670 5668 5666 5665 5663 5662 5661 5660 5658 5656 5655 5653 5651 5650 5648 5645 5646 5648 5649 5650 5652 5653 5655 5656 5657 5658 5660 5661 5662 5663 5665 5666 5668 5670 5671
5674 5673 5672 5671 5670 5669 5668 5666 5665 5663 5661 5660 5658 5657 5655 5654 5652 5651 5649 5647 5646 5645 5643 5640 5639 5640 5641 5643 5644 5645 5646 5647 5649 5650 5651 5652 5653 5654 5655 5657 5658 5660 5662
5670 5669 5668 5667 5666 5665 5663 5662 5660 5658 5656 5654 5653 5652 5650 5649 5647 5645 5644 5641 5640 5638 5636 5634 5632 5632 5632 5633 5633 5633 5635 5637 5638 5640 5641 5642 5643 5644 5645 5647 5648 5650 5652
5665 5664 5663 5662 5661 5660 5658 5656 5655 5653 5650 5648 5647 5646 5645 5644 5642 5641 5639 5636 5634 5630 5628 5626 5624 5623 5622 5622 5622 5622 5623 5625 5628 5628 5630 5631 5632 5633 5634 5635 5637 5639 5640
5660 5659 5658 5657 5656 5656 5654 5652 5650 5647 5645 5642 5640 5639 5638 5636 5635 5633 5632 5630 5628 5624 5620 5618 5615 5614 5613 5613 5613 5613 5612 5613 5615 5618 5617 5619 5620 5621 5622 5624 5626 5627 5629
5655 5653 5652 5652 5650 5650 5649 5647 5644 5641 5638 5635 5633 5632 5631 5629 5627 5625 5623 5622 5619 5617 5615 5612 5608 5607 5606 5605 5604 5604 5603 5602 5603 5606 5606 5609 5610 5610 5612 5613 5614 5616 5617
5650 5649 5647 5646 5645 5644 5643 5641 5638 5635 5631 5629 5626 5624 5622 5621 5620 5617 5615 5612 5610 5608 5606 5604 5602 5601 5599 5598 5596 5595 5594 5594 5594 5594 5594 5595 5598 5600 5602 5603 5603 5603 5604
5646 5644 5643 5641 5639 5638 5637 5635 5632 5628 5624 5621 5619 5617 5615 5613 5612 5609 5606 5603 5600 5599 5598 5596 5594 5592 5591 5589 5588 5586 5583 5582 5582 5583 5582 5581 5585 5587 5590 5590 5590 5590 5590
5642 5640 5637 5635 5633 5631 5630 5628 5626 5621 5617 5614 5611 5609 5607 5605 5603 5600 5596 5592 5590 5588 5587 5586 5584 5582 5580 5578 5576 5574 5571 5568 5568 5569 5570 5568 5569 5569 5574 5577 5576 5575 5575